Regional Weather Roundup
Issued by NWS

Home | Current Version | Previous Version | Graphics & Text | Print | Product List | Glossary On
Versions: 1 2 3 4 5 6 7 8 9 10 11 12 13 14 15 16 17 18 19 20 21 22 23 24 25 26 27 28
000
ASUS45 KTFX 201510
RWRMT
MONTANA REGIONAL WEATHER ROUNDUP
NATIONAL WEATHER SERVICE GREAT FALLS MT
800 AM MST FRI JAN 20 2017

NOTE: "FAIR" INDICATES FEW OR NO CLOUDS BELOW 12000 FEET WITH NO
SIGNIFICANT WEATHER AND/OR OBSTRUCTIONS TO VISIBILITY.

MTZ001>007-043-201600-
WEST OF THE DIVIDE

CITY           SKY/WX    TMP DP  RH WIND       PRES   REMARKS
KALISPELL      CLOUDY    25  23  92 CALM      29.47F
MISSOULA       FOG       31  31 100 CALM      29.51S VSB 1/4
BUTTE          MOCLDY    13  10  88 SW5       29.48S
MULLAN PASS    FOG       25  21  85 S7        29.37F VSB 1/2 WCI  17
ANACONDA         N/A     27  21  80 S5        29.47F
DEER LODGE       N/A     28  28 100 E5        29.50F VSB 0
EUREKA           N/A     36  30  80 S12       29.46F WCI  27
HAMILTON         N/A     27  25  93 CALM      29.51S VSB 0
PLAINS           N/A     28  24  85 CALM      29.53
$$

MTZ008-052>055-201600-
SOUTHWEST MONTANA

CITY           SKY/WX    TMP DP  RH WIND       PRES   REMARKS
BOZEMAN        CLOUDY    21  19  92 S3        29.50F
DILLON         CLOUDY    28  13  53 S7        29.49F WCI  21
W YELLOWSTONE  CLOUDY    25  21  86 S3        29.52F
ENNIS          CLOUDY    27  19  74 S10       29.54F WCI  17
$$

MTZ009-010-012-014-046-048-049-054-201600-
EAST SLOPES AND CENTRAL MONTANA

CITY           SKY/WX    TMP DP  RH WIND       PRES   REMARKS
CUT BANK       CLEAR     24  19  81 W8        29.41S WCI  15
GREAT FALLS    CLOUDY    32  22  66 SW10      29.43S WCI  24
MALMSTROM AFB  CLOUDY    29  24  79 SW6       29.45S WCI  23
HELENA         FOG       20  19  96 CALM      29.48F VSB 1/4
AUGUSTA          N/A     28  17  64 W9        29.42R WCI  19
BOWMANS CRNR     N/A     28  20  73 S7        29.42F WCI  21
CHOTEAU          N/A     28  18  64 SW6       29.44S WCI  22
CONRAD           N/A     17  13  84 SW5       29.49F
POWER            N/A     22  17  80 W8        29.43S WCI  13
RAYNESFORD       N/A     32  22  65 SE6       29.44F WCI  27
ULM            MOCLDY    29  23  75 MISG      29.45S
$$

MTZ011-013-016-021-045-047-050-051-201600-
NORTH CENTRAL MONTANA

CITY           SKY/WX    TMP DP  RH WIND       PRES   REMARKS
HAVRE          CLEAR     31  26  82 SW13      29.44S WCI  21
LEWISTOWN      CLEAR     29  25  85 VRB5      29.45S
CHINOOK          N/A     30  27  86 CALM      29.44S
DENTON           N/A     32  24  72 W15       29.41F WCI  21
FORT BENTON      N/A     30  25  80 MISG      29.47S
GEYSER           N/A     29  22  74 SW8       29.44S WCI  21
GRASS RANGE      N/A     32  29  88 SW10      29.42S WCI  23
JUDITH GAP       N/A     28  23  81 W10       29.44S WCI  19
ROY            MOCLDY    35  28  73 MISG      29.44S
STANFORD         N/A     29  22  74 CALM      29.45R
WINIFRED         N/A     33  26  76 S6        29.44S WCI  27
$$

MTZ017>020-022>027-061-062-201600-
NORTHEAST MONTANA

CITY           SKY/WX    TMP DP  RH WIND       PRES   REMARKS
GLASGOW        CLOUDY    29  25  85 NW7       29.41S WCI  22
JORDAN           N/A     34  32  92 W8        29.43S WCI  27
SIDNEY         CLEAR     14  12  92 SW3       29.41S
WOLF POINT     CLOUDY    16  12  84 SW5       29.42F FOG
PLENTYWOOD       N/A     27  23  86 NW9       29.39R WCI  17
POPLAR           N/A     19  18  93 W3        29.43S
$$

MTZ028>42-056>058-201600-
SOUTHCENTRAL AND SOUTHEAST MONTANA

CITY           SKY/WX    TMP DP  RH WIND       PRES   REMARKS
BAKER          CLOUDY    16  15  96 NW3       29.42S
BILLINGS       CLOUDY    33  28  81 SW12      29.48S WCI  24
LIVINGSTON     PTCLDY    30  25  81 NW8       29.48S WCI  22
MILES CITY     CLOUDY    29  26  89 W8        29.44F FOG     WCI  21
BIG TIMBER     CLEAR     32  23  69 W15       29.50S WCI  22
EKALAKA          N/A     26  22  85 SW3       29.45
FORSYTH          N/A     36  36 100 SW7       29.46S WCI  30
HARLOWTON      MOCLDY    30  24  79 NW9       29.46F WCI  22
LAUREL           N/A     31  21  66 SW2       29.52
$$

REGIONAL REPORTS...DAKOTAS

CITY           SKY/WX    TMP DP  RH WIND       PRES   REMARKS
WILLISTON      CLOUDY    12  10  92 SW3       29.40S FOG
MINOT          CLOUDY    21  17  84 E5        29.38R
DICKINSON      CLOUDY    24  20  84 W10       29.35S WCI  14
BEACH            N/A     27  25  93 W14       29.43S WCI  15
CROSBY           N/A     16  16 100 SW7       29.40S WCI   6
TIOGA            N/A     18  18 100 W6        29.38F WCI   9
WATFORD CITY     N/A     19  18  93 SW6       29.39F WCI  11
BISMARCK       FOG       24  22  91 W5        29.41F VSB 1/4
GRAND FORKS    FOG       36  34  92 S12       29.50F VSB 3/4 WCI  28
FARGO          CLOUDY    36  36 100 SE10      29.50F FOG     WCI  28
BUFFALO SD       N/A     31  26  82 NW23      29.29F WCI  18
RAPID CITY     CLOUDY    34  26  72 NW9       29.38S WCI  27
$$

REGIONAL REPORTS...WYOMING/IDAHO/WASHINGTON

CITY           SKY/WX    TMP DP  RH WIND       PRES   REMARKS
GILLETTE       CLOUDY    32  30  92 W8        29.45S WCI  25
SHERIDAN       MIX PCPN  35  32  88 W9        29.48S WCI  28
BUFFALO WY     LGT SNOW  32  29  88 CALM      29.47S VSB 1
CODY           CLOUDY    22  18  85 CALM      29.49S
YELLOWSTONE LA   N/A     18  17  96 CALM      29.53S
IDAHO FALLS    MOCLDY    28  27  96 CALM      29.57F FOG
SALMON         CLOUDY    21  19  93 E5        29.54S
BOISE          MOCLDY    36  27  69 SE15      29.42F WCI  27
SPOKANE        MOCLDY    28  27  96 NE9       29.39F WCI  19
$$

REGIONAL REPORTS...ALBERTA

CITY           SKY/WX    TMP DP  RH WIND       PRES   REMARKS
EDMONTON       PTCLDY    23  14  68 SW7       29.32S WCI  15
CALGARY        PTCLDY    28  14  54 S5        29.33S
LETHBRIDGE     PTCLDY    34  23  64 W18G24    29.38S WCI  23
MEDICINE HAT   PTCLDY    28  23  80 SW9       29.38S WCI  20
WATERTON GATE    N/A     32  18  55 SW10        N/A  WCI  24
MILK RIVER       N/A     25  21  86 NW6         N/A  WCI  18
ONEFOUR          N/A     27  23  86 W2          N/A
$$

REGIONAL REPORTS...SASKATCHEWAN

CITY           SKY/WX    TMP DP  RH WIND       PRES   REMARKS
SWIFT CURRENT  PTCLDY    34  25  69 W14       29.34S WCI  24
REGINA         PTCLDY    14  14 100 E9        29.37R WCI   2
SASKATOON      MOCLDY    28  27  93 W6        29.33S WCI  22
VAL MARIE        N/A     28  25  86 W8          N/A  WCI  20
ROCKGLEN         N/A     30  27  86 W9          N/A  WCI  22
$$




USA.gov is the U.S. government's official web portal to all federal, state and local government web resources and services.